User: anonymous   Login
Location: Saint-Usage
(47.1052°N, 5.2587°E)
Time: 12:24:36
(UTC+01:00)
Language:

DOVE 4 - Orbit

View from above orbital plane
View from above orbital plane
View from above satellite
View from above satellite

Ground track
Ground track

The orbit data is extracted from the following two-line orbital elements,

1 39430U 13066Q   21340.04256052  .00000687  00000-0  13261-3 0  9996
2 39430  97.8138 253.2510 0149207 294.7495  63.8239 14.59766119428079
Epoch (UTC): 06 December 2021 01:01:17
Eccentricity: 0.0149207
inclination: 97.8138°
perigee height: 588 km
apogee height: 799 km
right ascension of ascending node: 253.2510°
argument of perigee: 294.7495°
revolutions per day: 14.59766119
mean anomaly at epoch: 63.8239°
orbit number at epoch: 42807

The dashed part of the orbit path shows where the satellite is in the earth's shadow,  

DLR